RYR86DZ EBCI-LFMU

Flight info

Callsign RYR86DZ
Flight time 1h 21m
Altitude 19000
Route CIV Y50 IDOKO/N0325F170 Y50 MATIX/N0334F190 Y50 REM B3 VATRI G40 TRO B373 MOU A27 MEN J27 AFRIC
Aircraft B38M/M-SADE3FGILRWY/SB1

Departure

Time 2026-04-23 09:57
Airport Brussels South Charleroi Airport (EBCI)

Arrival

Time 2026-04-23 11:19
Airport Béziers Vias airport (LFMU)
Time Latitude Longitude Altitude Speed Heading
2026-04-23 09:42 50.46789 4.46819 628 ft 0 kts 335°
2026-04-23 09:50 50.46769 4.46834 628 ft 4 kts 335°
2026-04-23 09:50 50.46750 4.46848 627 ft 4 kts 316°
2026-04-23 09:50 50.46745 4.46875 622 ft 3 kts 246°
2026-04-23 09:51 50.46755 4.46909 618 ft 2 kts 245°
2026-04-23 09:51 50.46756 4.46911 619 ft 0 kts 245°
2026-04-23 09:53 50.46752 4.46899 628 ft 4 kts 245°
2026-04-23 09:53 50.46712 4.46790 623 ft 19 kts 214°
2026-04-23 09:53 50.46584 4.46744 620 ft 19 kts 246°
2026-04-23 09:53 50.46530 4.46534 618 ft 22 kts 245°
2026-04-23 09:54 50.46462 4.46302 622 ft 24 kts 245°
2026-04-23 09:54 50.46388 4.46051 623 ft 27 kts 245°
2026-04-23 09:54 50.46311 4.45780 616 ft 19 kts 245°
2026-04-23 09:54 50.46256 4.45588 619 ft 20 kts 245°
2026-04-23 09:55 50.46193 4.45372 628 ft 23 kts 246°
2026-04-23 09:55 50.46124 4.45131 616 ft 25 kts 246°
2026-04-23 09:55 50.46046 4.44868 620 ft 28 kts 244°
2026-04-23 09:55 50.45962 4.44585 620 ft 30 kts 246°
2026-04-23 09:56 50.45882 4.44372 616 ft 22 kts 230°
2026-04-23 09:56 50.45786 4.44176 622 ft 24 kts 233°
2026-04-23 09:56 50.45660 4.44000 622 ft 26 kts 185°
2026-04-23 09:56 50.45621 4.44038 626 ft 3 kts 64°
2026-04-23 09:57 50.45685 4.44252 622 ft 56 kts 65°
2026-04-23 09:57 50.45948 4.45154 617 ft 123 kts 65°
2026-04-23 09:57 50.46362 4.46607 798 ft 158 kts 65°
2026-04-23 09:57 50.46811 4.48251 1476 ft 162 kts 66°
2026-04-23 09:58 50.47323 4.49734 2468 ft 157 kts 51°
2026-04-23 09:58 50.48210 4.50927 3006 ft 180 kts 39°
2026-04-23 09:58 50.49325 4.52149 3413 ft 210 kts 37°
2026-04-23 09:58 50.50373 4.53869 3840 ft 228 kts 56°
2026-04-23 09:59 50.51339 4.55970 4336 ft 246 kts 54°
2026-04-23 09:59 50.52373 4.58183 5098 ft 252 kts 54°
2026-04-23 09:59 50.53622 4.60138 5858 ft 258 kts 33°
2026-04-23 09:59 50.55343 4.60903 6745 ft 265 kts
2026-04-23 10:00 50.57147 4.60179 7543 ft 274 kts 332°
2026-04-23 10:00 50.58518 4.58054 8383 ft 285 kts 301°
2026-04-23 10:00 50.59027 4.55018 9304 ft 295 kts 271°
2026-04-23 10:00 50.58898 4.51761 10186 ft 301 kts 269°
2026-04-23 10:01 50.58829 4.48431 10917 ft 311 kts 270°
2026-04-23 10:01 50.58781 4.44954 11446 ft 325 kts 270°
2026-04-23 10:01 50.58731 4.41392 12134 ft 332 kts 270°
2026-04-23 10:01 50.58667 4.37752 12990 ft 335 kts 269°
2026-04-23 10:02 50.58595 4.34068 13772 ft 339 kts 269°
2026-04-23 10:02 50.58517 4.30341 14530 ft 342 kts 269°
2026-04-23 10:02 50.58438 4.26582 15186 ft 346 kts 268°
2026-04-23 10:02 50.58352 4.22772 15898 ft 351 kts 268°
2026-04-23 10:03 50.58268 4.18919 16668 ft 353 kts 268°
2026-04-23 10:03 50.58177 4.15045 17393 ft 357 kts 267°
2026-04-23 10:03 50.58086 4.11129 18100 ft 359 kts 266°
2026-04-23 10:03 50.57990 4.07213 18885 ft 357 kts 266°
2026-04-23 10:04 50.57892 4.03294 19309 ft 358 kts 266°
2026-04-23 10:04 50.57795 3.99388 19415 ft 357 kts 266°
2026-04-23 10:04 50.57679 3.95503 19415 ft 355 kts 262°
2026-04-23 10:04 50.57045 3.91796 19415 ft 350 kts 242°
2026-04-23 10:05 50.55677 3.88690 19416 ft 344 kts 222°
2026-04-23 10:05 50.53767 3.86494 19412 ft 340 kts 204°
2026-04-23 10:05 50.51543 3.85350 19411 ft 335 kts 186°
2026-04-23 10:05 50.49225 3.85200 19417 ft 334 kts 176°
2026-04-23 10:06 50.46904 3.85369 19422 ft 334 kts 174°
2026-04-23 10:06 50.44588 3.85637 19408 ft 334 kts 173°
2026-04-23 10:06 50.42275 3.85965 19407 ft 334 kts 173°
2026-04-23 10:06 50.39963 3.86322 19407 ft 333 kts 172°
2026-04-23 10:07 50.37655 3.86696 19410 ft 333 kts 172°
2026-04-23 10:07 50.35353 3.87081 19410 ft 333 kts 172°
2026-04-23 10:07 50.33052 3.87470 19409 ft 332 kts 172°
2026-04-23 10:07 50.30755 3.87861 19408 ft 332 kts 172°
2026-04-23 10:08 50.28457 3.88252 19400 ft 332 kts 172°
2026-04-23 10:08 50.26159 3.88644 19396 ft 332 kts 172°
2026-04-23 10:08 50.23863 3.89035 19400 ft 332 kts 172°
2026-04-23 10:09 50.19271 3.89816 19400 ft 332 kts 172°
2026-04-23 10:09 50.17018 3.90199 19399 ft 332 kts 172°
2026-04-23 10:09 50.14676 3.90597 19393 ft 332 kts 172°
2026-04-23 10:09 50.12381 3.90985 19405 ft 332 kts 172°
2026-04-23 10:10 50.10087 3.91374 19394 ft 331 kts 172°
2026-04-23 10:10 50.07822 3.91758 19390 ft 331 kts 172°
2026-04-23 10:10 50.05504 3.92150 19393 ft 331 kts 172°
2026-04-23 10:10 50.03216 3.92536 19387 ft 331 kts 172°
2026-04-23 10:11 50.00910 3.92926 19544 ft 335 kts 172°
2026-04-23 10:11 49.98637 3.93309 20268 ft 333 kts 172°
2026-04-23 10:11 49.96331 3.93699 20935 ft 334 kts 172°
2026-04-23 10:11 49.94013 3.94089 21568 ft 336 kts 171°
2026-04-23 10:12 49.91684 3.94480 22221 ft 337 kts 171°
2026-04-23 10:12 49.89343 3.94874 22850 ft 339 kts 171°
2026-04-23 10:12 49.86996 3.95268 23476 ft 340 kts 171°
2026-04-23 10:12 49.84635 3.95664 24068 ft 342 kts 171°
2026-04-23 10:13 49.82262 3.96062 24578 ft 343 kts 171°
2026-04-23 10:13 49.79882 3.96461 25089 ft 345 kts 171°
2026-04-23 10:13 49.77492 3.96862 25597 ft 346 kts 170°
2026-04-23 10:13 49.75093 3.97263 26091 ft 348 kts 170°
2026-04-23 10:14 49.72680 3.97667 26563 ft 350 kts 170°
2026-04-23 10:14 49.70255 3.98073 27031 ft 352 kts 170°
2026-04-23 10:14 49.67822 3.98479 27502 ft 353 kts 170°
2026-04-23 10:14 49.65365 3.98889 27957 ft 356 kts 169°
2026-04-23 10:15 49.62898 3.99300 28399 ft 358 kts 169°
2026-04-23 10:15 49.61228 3.99577 28695 ft 359 kts 169°
2026-04-23 10:15 49.58737 3.99992 29131 ft 361 kts 169°
2026-04-23 10:15 49.56234 4.00408 29565 ft 363 kts 169°
2026-04-23 10:16 49.53717 4.00825 29999 ft 365 kts 169°
2026-04-23 10:16 49.51190 4.01244 30414 ft 366 kts 169°
2026-04-23 10:16 49.48682 4.01659 30742 ft 368 kts 169°
2026-04-23 10:16 49.46122 4.02082 31049 ft 371 kts 169°
2026-04-23 10:17 49.43545 4.02507 31319 ft 375 kts 169°
2026-04-23 10:17 49.40934 4.02938 31384 ft 378 kts 169°
2026-04-23 10:17 49.35720 4.03793 31374 ft 376 kts 169°
2026-04-23 10:18 49.30500 4.04514 31368 ft 379 kts 175°
2026-04-23 10:18 49.25223 4.04582 31376 ft 379 kts 174°
2026-04-23 10:19 49.19940 4.04734 31371 ft 382 kts 174°
2026-04-23 10:19 49.14616 4.04902 31370 ft 383 kts 175°
2026-04-23 10:20 49.09285 4.05042 31376 ft 383 kts 175°
2026-04-23 10:20 49.03958 4.05183 31370 ft 383 kts 175°
2026-04-23 10:21 48.98621 4.05324 31363 ft 385 kts 175°
2026-04-23 10:21 48.93251 4.05467 31366 ft 387 kts 175°
2026-04-23 10:22 48.87904 4.05608 31369 ft 387 kts 175°
2026-04-23 10:22 48.82523 4.05749 31370 ft 387 kts 175°
2026-04-23 10:23 48.77147 4.05854 31371 ft 387 kts 175°
2026-04-23 10:23 48.71763 4.05932 31377 ft 387 kts 175°
2026-04-23 10:24 48.66378 4.06013 31368 ft 387 kts 175°
2026-04-23 10:24 48.61000 4.06093 31371 ft 387 kts 175°
2026-04-23 10:25 48.55608 4.06025 31349 ft 393 kts 185°
2026-04-23 10:25 48.50219 4.04298 31332 ft 397 kts 188°
2026-04-23 10:26 48.44814 4.02582 31344 ft 397 kts 188°
2026-04-23 10:26 48.39413 4.00859 31347 ft 397 kts 188°
2026-04-23 10:27 48.33996 3.99133 31345 ft 400 kts 189°
2026-04-23 10:27 48.28530 3.97395 31350 ft 402 kts 189°
2026-04-23 10:28 48.23037 3.95919 31352 ft 400 kts 185°
2026-04-23 10:28 48.17524 3.94721 31342 ft 401 kts 185°
2026-04-23 10:29 48.11986 3.93484 31332 ft 405 kts 186°
2026-04-23 10:29 48.06410 3.92237 31326 ft 405 kts 186°
2026-04-23 10:30 48.00832 3.91006 31320 ft 405 kts 186°
2026-04-23 10:30 47.95253 3.89794 31310 ft 405 kts 186°
2026-04-23 10:31 47.89622 3.88573 31303 ft 412 kts 187°
2026-04-23 10:31 47.83942 3.87343 31306 ft 414 kts 186°
2026-04-23 10:32 47.78271 3.86118 31301 ft 413 kts 187°
2026-04-23 10:32 47.72582 3.84892 31292 ft 415 kts 187°
2026-04-23 10:33 47.66803 3.83648 31284 ft 421 kts 188°
2026-04-23 10:33 47.61022 3.82409 31288 ft 420 kts 187°
2026-04-23 10:34 47.55219 3.81161 31288 ft 421 kts 188°
2026-04-23 10:34 47.49417 3.79907 31282 ft 425 kts 189°
2026-04-23 10:35 47.43547 3.78642 31288 ft 427 kts 189°
2026-04-23 10:35 47.37675 3.77379 31281 ft 427 kts 189°
2026-04-23 10:36 47.31799 3.76118 31264 ft 427 kts 190°
2026-04-23 10:36 47.25847 3.74844 31263 ft 435 kts 191°
2026-04-23 10:37 47.19854 3.73563 31273 ft 435 kts 191°
2026-04-23 10:37 47.13856 3.72285 31270 ft 435 kts 191°
2026-04-23 10:38 47.07850 3.71008 31271 ft 437 kts 191°
2026-04-23 10:38 47.01833 3.69731 31269 ft 437 kts 191°
2026-04-23 10:39 46.95799 3.68453 31267 ft 437 kts 191°
2026-04-23 10:39 46.89776 3.67182 31246 ft 438 kts 192°
2026-04-23 10:40 46.83735 3.65908 31270 ft 439 kts 192°
2026-04-23 10:40 46.77694 3.64638 31268 ft 439 kts 192°
2026-04-23 10:41 46.71652 3.63369 31266 ft 438 kts 192°
2026-04-23 10:41 46.68733 3.62282 31269 ft 431 kts 204°
2026-04-23 10:41 46.65927 3.60853 31252 ft 433 kts 202°
2026-04-23 10:42 46.60174 3.58066 31277 ft 433 kts 202°
2026-04-23 10:42 46.54494 3.55318 31264 ft 433 kts 202°
2026-04-23 10:43 46.48771 3.52553 31257 ft 434 kts 203°
2026-04-23 10:43 46.43026 3.49785 31261 ft 435 kts 203°
2026-04-23 10:44 46.37277 3.47021 31248 ft 435 kts 203°
2026-04-23 10:44 46.31526 3.44261 31221 ft 435 kts 204°
2026-04-23 10:45 46.25765 3.41504 31238 ft 436 kts 204°
2026-04-23 10:45 46.20003 3.38751 31235 ft 436 kts 204°
2026-04-23 10:46 46.14242 3.36005 31240 ft 436 kts 204°
2026-04-23 10:46 46.08484 3.33267 31232 ft 435 kts 204°
2026-04-23 10:47 46.02722 3.30532 31237 ft 435 kts 204°
2026-04-23 10:47 45.96967 3.27808 31233 ft 435 kts 204°
2026-04-23 10:48 45.91222 3.25093 31226 ft 435 kts 204°
2026-04-23 10:48 45.85480 3.22386 31239 ft 434 kts 204°
2026-04-23 10:49 45.79730 3.19716 31235 ft 436 kts 200°
2026-04-23 10:49 45.76699 3.19182 31238 ft 444 kts 184°
2026-04-23 10:49 45.73605 3.19148 31219 ft 444 kts 186°
2026-04-23 10:50 45.67430 3.18936 31221 ft 444 kts 185°
2026-04-23 10:50 45.61305 3.18772 31216 ft 443 kts 185°
2026-04-23 10:51 45.55139 3.18614 31214 ft 443 kts 185°
2026-04-23 10:51 45.48970 3.18456 31212 ft 443 kts 185°
2026-04-23 10:52 45.42799 3.18299 31209 ft 443 kts 185°
2026-04-23 10:52 45.36638 3.18142 31207 ft 443 kts 185°
2026-04-23 10:53 45.30476 3.17987 31212 ft 442 kts 186°
2026-04-23 10:53 45.24325 3.17830 31227 ft 442 kts 185°
2026-04-23 10:54 45.18164 3.17675 31221 ft 443 kts 186°
2026-04-23 10:54 45.12032 3.17521 30961 ft 437 kts 186°
2026-04-23 10:55 45.08984 3.17385 30300 ft 440 kts 187°
2026-04-23 10:55 45.05916 3.17219 29619 ft 441 kts 187°
2026-04-23 10:55 45.02862 3.17063 29223 ft 435 kts 187°
2026-04-23 10:55 44.99858 3.16911 28856 ft 429 kts 187°
2026-04-23 10:56 44.96889 3.16761 28414 ft 425 kts 186°
2026-04-23 10:56 44.93932 3.16705 27929 ft 424 kts 185°
2026-04-23 10:56 44.90993 3.16675 27530 ft 420 kts 185°
2026-04-23 10:56 44.88087 3.16636 27154 ft 416 kts 185°
2026-04-23 10:57 44.85206 3.16595 26737 ft 413 kts 185°
2026-04-23 10:57 44.82342 3.16553 26323 ft 410 kts 184°
2026-04-23 10:57 44.79497 3.16512 25924 ft 408 kts 184°
2026-04-23 10:57 44.76704 3.16471 25516 ft 406 kts 184°
2026-04-23 10:58 44.73884 3.16430 25110 ft 404 kts 184°
2026-04-23 10:58 44.71077 3.16389 24700 ft 403 kts 184°
2026-04-23 10:58 44.68279 3.16349 24299 ft 402 kts 184°
2026-04-23 10:58 44.65488 3.16308 23885 ft 401 kts 184°
2026-04-23 10:59 44.62703 3.16267 23413 ft 400 kts 183°
2026-04-23 10:59 44.59951 3.15974 22901 ft 394 kts 196°
2026-04-23 10:59 44.57326 3.14994 22495 ft 389 kts 198°
2026-04-23 10:59 44.54719 3.14059 22170 ft 384 kts 198°
2026-04-23 11:00 44.52142 3.13139 21784 ft 381 kts 197°
2026-04-23 11:00 44.49585 3.12228 21398 ft 377 kts 197°
2026-04-23 11:00 44.47052 3.11328 21032 ft 374 kts 197°
2026-04-23 11:00 44.44539 3.10434 20632 ft 372 kts 197°
2026-04-23 11:01 44.42037 3.09545 20262 ft 370 kts 197°
2026-04-23 11:01 44.39547 3.08662 19875 ft 368 kts 197°
2026-04-23 11:01 44.37067 3.07782 19483 ft 367 kts 197°
2026-04-23 11:01 44.34601 3.06908 19106 ft 365 kts 197°
2026-04-23 11:02 44.32148 3.06040 18744 ft 363 kts 197°
2026-04-23 11:02 44.30532 3.05469 18480 ft 362 kts 197°
2026-04-23 11:02 44.27281 3.04320 17916 ft 359 kts 198°
2026-04-23 11:02 44.25681 3.03754 17660 ft 357 kts 197°
2026-04-23 11:03 44.23284 3.02908 17290 ft 354 kts 197°
2026-04-23 11:03 44.20869 3.02059 16910 ft 351 kts 198°
2026-04-23 11:03 44.18541 3.01238 16541 ft 349 kts 198°
2026-04-23 11:03 44.16197 3.00413 16182 ft 346 kts 197°
2026-04-23 11:04 44.13868 2.99593 15817 ft 344 kts 196°
2026-04-23 11:04 44.11553 2.98778 15353 ft 344 kts 196°
2026-04-23 11:04 44.09208 2.97960 14803 ft 349 kts 197°
2026-04-23 11:04 44.06858 2.97141 14415 ft 348 kts 197°
2026-04-23 11:05 44.04515 2.96322 14044 ft 346 kts 195°
2026-04-23 11:05 44.02185 2.95510 13639 ft 344 kts 195°
2026-04-23 11:05 43.99875 2.94706 13262 ft 341 kts 195°
2026-04-23 11:05 43.97577 2.93908 12879 ft 339 kts 197°
2026-04-23 11:06 43.93048 2.92332 12187 ft 333 kts 196°
2026-04-23 11:06 43.90810 2.91555 11832 ft 331 kts 196°
2026-04-23 11:06 43.88591 2.90784 11477 ft 328 kts 195°
2026-04-23 11:07 43.86385 2.90020 11108 ft 326 kts 196°
2026-04-23 11:07 43.84195 2.89261 10764 ft 323 kts 195°
2026-04-23 11:07 43.82018 2.88508 10418 ft 321 kts 195°
2026-04-23 11:07 43.79856 2.87760 10074 ft 319 kts 194°
2026-04-23 11:08 43.77659 2.87482 9612 ft 319 kts 172°
2026-04-23 11:08 43.75601 2.88531 9233 ft 316 kts 147°
2026-04-23 11:08 43.73817 2.90250 8975 ft 309 kts 145°
2026-04-23 11:08 43.72054 2.91910 8677 ft 305 kts 146°
2026-04-23 11:09 43.70308 2.93543 8355 ft 301 kts 146°
2026-04-23 11:09 43.68583 2.95152 8047 ft 297 kts 146°
2026-04-23 11:09 43.66884 2.96733 7729 ft 292 kts 146°
2026-04-23 11:09 43.65214 2.98284 7367 ft 286 kts 147°
2026-04-23 11:10 43.63571 2.99811 7044 ft 281 kts 146°
2026-04-23 11:10 43.61963 3.01305 6802 ft 276 kts 146°
2026-04-23 11:10 43.60387 3.02770 6544 ft 271 kts 146°
2026-04-23 11:10 43.58820 3.04221 6233 ft 271 kts 146°
2026-04-23 11:11 43.57254 3.05674 5870 ft 271 kts 146°
2026-04-23 11:11 43.55696 3.07117 5560 ft 268 kts 146°
2026-04-23 11:11 43.54182 3.08518 5304 ft 263 kts 146°
2026-04-23 11:11 43.52669 3.09917 5012 ft 261 kts 146°
2026-04-23 11:12 43.51172 3.11304 4714 ft 258 kts 146°
2026-04-23 11:12 43.49692 3.12671 4429 ft 255 kts 146°
2026-04-23 11:12 43.48155 3.13842 4135 ft 252 kts 163°
2026-04-23 11:12 43.46420 3.13936 3964 ft 249 kts 185°
2026-04-23 11:13 43.44740 3.13622 3878 ft 239 kts 183°
2026-04-23 11:13 43.43117 3.13334 3773 ft 231 kts 184°
2026-04-23 11:13 43.41549 3.13047 3632 ft 223 kts 184°
2026-04-23 11:13 43.40040 3.12766 3505 ft 214 kts 184°
2026-04-23 11:14 43.38593 3.12493 3402 ft 206 kts 183°
2026-04-23 11:14 43.37245 3.12235 3339 ft 185 kts 182°
2026-04-23 11:14 43.36027 3.12004 3181 ft 169 kts 182°
2026-04-23 11:14 43.34917 3.12008 2975 ft 153 kts 157°
2026-04-23 11:15 43.34088 3.12815 2755 ft 145 kts 126°
2026-04-23 11:15 43.33699 3.14092 2565 ft 148 kts 104°
2026-04-23 11:15 43.33561 3.15501 2521 ft 150 kts 101°
2026-04-23 11:15 43.33446 3.16926 2531 ft 150 kts 99°
2026-04-23 11:16 43.33343 3.18357 2504 ft 150 kts 99°
2026-04-23 11:16 43.33247 3.19785 2488 ft 150 kts 99°
2026-04-23 11:16 43.33155 3.21216 2488 ft 151 kts 98°
2026-04-23 11:16 43.33065 3.22596 2252 ft 138 kts 99°
2026-04-23 11:17 43.32981 3.23860 2011 ft 131 kts 97°
2026-04-23 11:17 43.32911 3.25109 1684 ft 131 kts 97°
2026-04-23 11:17 43.32843 3.26341 1415 ft 129 kts 96°
2026-04-23 11:17 43.32775 3.27561 1145 ft 128 kts 96°
2026-04-23 11:18 43.32709 3.28775 938 ft 127 kts 96°
2026-04-23 11:18 43.32643 3.30007 727 ft 130 kts 96°
2026-04-23 11:18 43.32577 3.31246 524 ft 130 kts 97°
2026-04-23 11:18 43.32501 3.32486 353 ft 131 kts 96°
2026-04-23 11:19 43.32432 3.33751 169 ft 134 kts 95°
2026-04-23 11:19 43.32362 3.34997 60 ft 115 kts 94°
2026-04-23 11:19 43.32313 3.35738 53 ft 28 kts 103°
2026-04-23 11:19 43.32313 3.35788 52 ft 1 kts 21°
2026-04-23 11:20 43.32324 3.35770 49 ft 5 kts 287°
2026-04-23 11:20 43.32330 3.35640 52 ft 22 kts 274°
2026-04-23 11:20 43.32337 3.35411 55 ft 25 kts 261°
2026-04-23 11:20 43.32213 3.35325 60 ft 14 kts 178°
2026-04-23 11:21 43.32143 3.35344 61 ft 4 kts 184°
2026-04-23 11:21 43.32129 3.35343 61 ft 0 kts 184°